CW2674 Weather Reports


Display with metric or nautical units.
time (UTC)temp
F
wind
direction
speed
MPH
gust
MPH
rain 1hr
in
rain 24hr
in
rain mn
in
humidity
%
barometer
mb
20260510224404 109 270 6.0 12.0 0.00 0.00 0.00 7 1008.1
20260510223404 108 267 6.0 13.0 0.00 0.00 0.00 7 1008.3
20260510221404 109 249 9.0 13.0 0.00 0.00 0.00 6 1008.6
20260510214405 109 243 5.0 15.0 0.00 0.00 0.00 7 1009.2
20260510213404 109 214 3.0 14.0 0.00 0.00 0.00 8 1009.2
20260510211406 108 228 5.0 9.0 0.00 0.00 0.00 7 1009.5
20260510210406 108 217 3.0 12.0 0.00 0.00 0.00 8 1009.6
20260510204404 108 189 3.0 10.0 0.00 0.00 0.00 8 1009.8
20260510203404 106 227 2.0 8.0 0.00 0.00 0.00 7 1010.0
20260510201404 106 233 2.0 6.0 0.00 0.00 0.00 9 1010.2
20260510200404 105 205 3.0 10.0 0.00 0.00 0.00 9 1010.2
20260510194404 106 133 3.0 10.0 0.00 0.00 0.00 10 1010.3
20260510193405 105 110 5.0 8.0 0.00 0.00 0.00 10 1010.4
20260510184404 103 158 5.0 7.0 0.00 0.00 0.00 11 1010.8
20260510183406 102 118 1.0 9.0 0.00 0.00 0.00 10 1010.8
20260510181405 101 106 2.0 10.0 0.00 0.00 0.00 11 1011.1
20260510180404 100 179 2.0 10.0 0.00 0.00 0.00 11 1011.1
20260510174405 98 153 3.0 7.0 0.00 0.00 0.00 14 1011.1
20260510173405 97 164 4.0 9.0 0.00 0.00 0.00 14 1011.2
20260510171403 96 175 3.0 10.0 0.00 0.00 0.00 14 1011.1
20260510170404 95 75 3.0 8.0 0.00 0.00 0.00 15 1011.1
20260510163404 92 66 4.0 8.0 0.00 0.00 0.00 16 1010.9
20260510161405 88 62 2.0 3.0 0.00 0.00 0.00 18 1010.9
20260510160405 87 61 2.0 6.0 0.00 0.00 0.00 19 1011.0
20260510153406 84 59 3.0 6.0 0.00 0.00 0.00 20 1011.0
20260510151404 82 51 2.0 6.0 0.00 0.00 0.00 21 1011.0
20260510144404 79 280 1.0 3.0 0.00 0.00 0.00 23 1010.9
20260510143404 77 281 1.0 2.0 0.00 0.00 0.00 24 1010.8
20260510141407 74 281 0.0 1.0 0.00 0.00 0.00 27 1010.6
20260510140405 73 281 1.0 2.0 0.00 0.00 0.00 28 1010.5
20260510134405 71 281 2.0 3.0 0.00 0.00 0.00 24 1010.2
20260510133406 69 281 2.0 3.0 0.00 0.00 0.00 25 1010.1
20260510130405 68 281 0.0 2.0 0.00 0.00 0.00 26 1009.7
20260510071404 80 273 3.0 6.0 0.00 0.00 0.00 17 1007.9
20260510070405 82 262 0.0 3.0 0.00 0.00 0.00 16 1007.8
20260510064404 85 262 1.0 3.0 0.00 0.00 0.00 13 1007.6
20260510061404 85 261 2.0 3.0 0.00 0.00 0.00 14 1007.5
20260510060404 85 261 1.0 3.0 0.00 0.00 0.00 14 1007.4
20260510054404 86 261 2.0 3.0 0.00 0.00 0.00 14 1007.3
20260510053404 87 261 2.0 6.0 0.00 0.00 0.00 14 1007.4
20260510051404 87 261 2.0 3.0 0.00 0.00 0.00 13 1007.4
20260510050404 87 261 2.0 3.0 0.00 0.00 0.00 13 1007.3
20260510044404 89 261 2.0 7.0 0.00 0.00 0.00 12 1007.1
20260510043405 90 260 3.0 7.0 0.00 0.00 0.00 12 1007.0
20260510041404 91 254 3.0 7.0 0.00 0.00 0.00 12 1006.7
20260510040405 91 259 3.0 7.0 0.00 0.00 0.00 11 1006.6
20260510034405 92 238 3.0 6.0 0.00 0.00 0.00 12 1006.4
20260510033406 92 240 3.0 10.0 0.00 0.00 0.00 12 1006.3
20260510031404 93 250 5.0 10.0 0.00 0.00 0.00 12 1006.0
20260510030404 94 237 4.0 10.0 0.00 0.00 0.00 11 1006.0
20260510024405 95 234 3.0 12.0 0.00 0.00 0.00 11 1005.7
20260510023405 96 250 6.0 10.0 0.00 0.00 0.00 10 1005.6
20260510021405 97 229 5.0 10.0 0.00 0.00 0.00 10 1005.4
20260510020405 98 225 5.0 13.0 0.00 0.00 0.00 10 1005.3
20260510014405 99 224 6.0 12.0 0.00 0.00 0.00 9 1005.3
20260510010404 101 233 8.0 13.0 0.00 0.00 0.00 8 1005.3
20260510004405 103 257 7.0 15.0 0.00 0.00 0.00 8 1005.4
20260510003406 103 268 7.0 15.0 0.00 0.00 0.00 9 1005.4
20260510000404 105 219 4.0 14.0 0.00 0.00 0.00 9 1005.5
20260509234404 106 246 7.0 14.0 0.00 0.00 0.00 8 1005.8
20260509233404 106 203 7.0 12.0 0.00 0.00 0.00 9 1005.9
20260509231404 107 261 6.0 12.0 0.00 0.00 0.00 9 1005.9